Location: Penton Mewsey
(51.2167°N, 1.5167°W)
Time: 02:43:31
(UTC+00:00)

Cosmos 1758 Rocket - Pass Details

Date: 30 March 2020
Orbit: 603 x 635 km, 82.5° (Epoch: 03 June)

Event Time Altitude Azimuth Distance (km) Brightness Sun altitude
Rises 19:38:39 0° 355° (N) 2,905 7.4 -10.3°
Reaches altitude 10° 19:41:05 10° 6° (N) 1,988 6.4 -10.6°
Maximum altitude 19:45:05 33° 71° (ENE) 1,041 4.3 -11.2°
Enters shadow 19:48:00 16° 128° (SE) 1,615 5.1 -11.6°
